• în România
  • Lista ţărilor
  • Pe 7 zile
  • Temperatura apei
  • Hartă satelitară
  • Meteo pe hartă
  • Widget-uri
  • user-avatar
    Intrare

    Meteo pe oră la Algiers

    Astăzi, 30 Aprilie, Duminică

    Timp Temperatura Precipitaţii Vânt Presiune Umiditate
    00:00 +14°C° 0 mm 2 m/s 747 mmHg 92%
    01:00 +14°C° 0 mm 1 m/s 747 mmHg 91%
    02:00 +14°C° 0 mm 1 m/s 747 mmHg 89%
    03:00 +15°C° 0 mm 1 m/s 747 mmHg 88%
    04:00 +15°C° 0 mm 1 m/s 747 mmHg 86%
    05:00 +16°C° 0 mm 1 m/s 747 mmHg 84%
    06:00 +18°C° 0 mm 1 m/s 747 mmHg 82%
    07:00 +20°C° 0 mm 1 m/s 747 mmHg 75%
    08:00 +20°C° 0 mm 2 m/s 748 mmHg 68%
    09:00 +23°C° 0 mm 2 m/s 748 mmHg 61%
    10:00 +24°C° 0 mm 3 m/s 748 mmHg 59%
    11:00 +23°C° 0 mm 4 m/s 748 mmHg 58%
    12:00 +25°C° 0 mm 4 m/s 748 mmHg 57%
    13:00 +23°C° 0,1 mm 5 m/s 748 mmHg 60%
    14:00 +23°C° 0,1 mm 5 m/s 747 mmHg 63%
    15:00 +23°C° 0,1 mm 5 m/s 747 mmHg 65%
    16:00 +21°C° 0 mm 5 m/s 747 mmHg 71%
    17:00 +20°C° 0 mm 5 m/s 747 mmHg 76%
    18:00 +19°C° 0 mm 4 m/s 747 mmHg 81%
    19:00 +18°C° 0 mm 4 m/s 748 mmHg 85%
    20:00 +16°C° 0 mm 3 m/s 749 mmHg 89%
    21:00 +14°C° 0 mm 3 m/s 749 mmHg 93%
    22:00 +14°C° 0 mm 3 m/s 749 mmHg 93%
    23:00 +14°C° 0 mm 3 m/s 749 mmHg 92%

    Mâine, 1 Mai, Luni

    Timp Temperatura Precipitaţii Vânt Presiune Umiditate
    00:00 +14°C° 0 mm 3 m/s 749 mmHg 91%
    01:00 +14°C° 0 mm 3 m/s 749 mmHg 90%
    02:00 +13°C° 0 mm 3 m/s 749 mmHg 89%
    03:00 +12°C° 0 mm 3 m/s 749 mmHg 87%
    04:00 +13°C° 0 mm 3 m/s 749 mmHg 85%
    05:00 +14°C° 0 mm 3 m/s 749 mmHg 83%
    06:00 +16°C° 0 mm 3 m/s 750 mmHg 80%
    07:00 +17°C° 0 mm 3 m/s 750 mmHg 74%
    08:00 +19°C° 0 mm 3 m/s 750 mmHg 68%
    09:00 +21°C° 0 mm 3 m/s 751 mmHg 62%
    10:00 +21°C° 0 mm 3 m/s 751 mmHg 63%
    11:00 +21°C° 0 mm 3 m/s 751 mmHg 64%
    12:00 +21°C° 0 mm 3 m/s 751 mmHg 65%
    13:00 +22°C° 0 mm 3 m/s 751 mmHg 65%
    14:00 +22°C° 0 mm 4 m/s 750 mmHg 64%
    15:00 +22°C° 0 mm 4 m/s 750 mmHg 64%
    16:00 +21°C° 0 mm 4 m/s 750 mmHg 69%
    17:00 +20°C° 0 mm 4 m/s 750 mmHg 74%
    18:00 +19°C° 0 mm 3 m/s 750 mmHg 79%
    19:00 +17°C° 0 mm 3 m/s 751 mmHg 83%
    20:00 +14°C° 0 mm 3 m/s 751 mmHg 88%
    21:00 +14°C° 0 mm 2 m/s 752 mmHg 92%
    22:00 +13°C° 0 mm 2 m/s 752 mmHg 93%
    23:00 +13°C° 0 mm 2 m/s 751 mmHg 93%

    Poimâine, 2 Mai, Marţi

    Timp Temperatura Precipitaţii Vânt Presiune Umiditate
    00:00 +13°C° 0 mm 2 m/s 751 mmHg 93%
    01:00 +12°C° 0 mm 2 m/s 751 mmHg 93%
    02:00 +12°C° 0 mm 2 m/s 751 mmHg 93%
    03:00 +12°C° 0 mm 1 m/s 751 mmHg 93%
    04:00 +13°C° 0 mm 1 m/s 751 mmHg 92%
    05:00 +14°C° 0 mm 2 m/s 751 mmHg 90%
    06:00 +15°C° 0 mm 2 m/s 751 mmHg 89%
    07:00 +17°C° 0 mm 2 m/s 751 mmHg 79%
    08:00 +19°C° 0 mm 2 m/s 751 mmHg 69%
    09:00 +21°C° 0 mm 3 m/s 751 mmHg 59%
    10:00 +22°C° 0 mm 3 m/s 751 mmHg 56%
    11:00 +23°C° 0 mm 4 m/s 750 mmHg 54%
    12:00 +26°C° 0 mm 4 m/s 750 mmHg 52%
    13:00 +25°C° 0 mm 5 m/s 750 mmHg 54%
    14:00 +25°C° 0 mm 5 m/s 749 mmHg 56%
    15:00 +25°C° 0 mm 5 m/s 749 mmHg 59%
    16:00 +23°C° 0 mm 5 m/s 749 mmHg 65%
    17:00 +21°C° 0 mm 5 m/s 749 mmHg 71%
    18:00 +20°C° 0 mm 5 m/s 749 mmHg 78%
    19:00 +18°C° 0 mm 4 m/s 749 mmHg 83%
    20:00 +15°C° 0 mm 4 m/s 750 mmHg 88%
    21:00 +13°C° 0 mm 4 m/s 750 mmHg 93%
    22:00 +13°C° 0 mm 4 m/s 750 mmHg 93%
    23:00 +13°C° 0 mm 3 m/s 750 mmHg 92%

    3 Mai, Miercuri

    Timp Temperatura Precipitaţii Vânt Presiune Umiditate
    00:00 +13°C° 0 mm 3 m/s 749 mmHg 92%
    01:00 +13°C° 0 mm 3 m/s 749 mmHg 92%
    02:00 +13°C° 0 mm 3 m/s 749 mmHg 91%
    03:00 +13°C° 0 mm 3 m/s 748 mmHg 91%
    04:00 +14°C° 0 mm 3 m/s 748 mmHg 89%
    05:00 +16°C° 0 mm 3 m/s 749 mmHg 87%
    06:00 +17°C° 0 mm 3 m/s 749 mmHg 86%
    07:00 +20°C° 0 mm 4 m/s 749 mmHg 77%
    08:00 +22°C° 0 mm 4 m/s 749 mmHg 68%
    09:00 +25°C° 0 mm 4 m/s 749 mmHg 58%
    10:00 +26°C° 0,2 mm 4 m/s 749 mmHg 57%
    11:00 +27°C° 0,2 mm 5 m/s 748 mmHg 55%
    12:00 +28°C° 0,2 mm 5 m/s 748 mmHg 53%
    13:00 +28°C° 0 mm 6 m/s 748 mmHg 55%
    14:00 +28°C° 0 mm 6 m/s 747 mmHg 56%
    15:00 +28°C° 0 mm 6 m/s 747 mmHg 57%
    16:00 +26°C° 0 mm 6 m/s 747 mmHg 65%
    17:00 +24°C° 0 mm 6 m/s 747 mmHg 72%
    18:00 +22°C° 0 mm 5 m/s 747 mmHg 79%
    19:00 +20°C° 0 mm 5 m/s 747 mmHg 84%
    20:00 +19°C° 0 mm 5 m/s 747 mmHg 88%
    21:00 +17°C° 0 mm 4 m/s 748 mmHg 93%
    22:00 +17°C° 0 mm 4 m/s 747 mmHg 92%
    23:00 +17°C° 0 mm 4 m/s 747 mmHg 91%

    4 Mai, Joi

    Timp Temperatura Precipitaţii Vânt Presiune Umiditate
    00:00 +16°C° 0 mm 3 m/s 747 mmHg 91%
    01:00 +16°C° 0 mm 3 m/s 747 mmHg 90%
    02:00 +16°C° 0 mm 3 m/s 746 mmHg 89%
    03:00 +16°C° 0 mm 3 m/s 746 mmHg 88%
    04:00 +17°C° 0 mm 3 m/s 746 mmHg 84%
    05:00 +18°C° 0 mm 3 m/s 746 mmHg 80%
    06:00 +19°C° 0 mm 3 m/s 746 mmHg 77%
    07:00 +22°C° 0 mm 3 m/s 746 mmHg 67%
    08:00 +25°C° 0 mm 3 m/s 746 mmHg 58%
    09:00 +28°C° 0 mm 3 m/s 746 mmHg 48%
    10:00 +29°C° 0 mm 4 m/s 746 mmHg 44%
    11:00 +32°C° 0 mm 4 m/s 745 mmHg 41%
    12:00 +33°C° 0 mm 5 m/s 745 mmHg 37%
    13:00 +33°C° 0 mm 5 m/s 744 mmHg 40%
    14:00 +33°C° 0 mm 5 m/s 744 mmHg 42%
    15:00 +33°C° 0 mm 6 m/s 744 mmHg 45%
    16:00 +30°C° 0 mm 5 m/s 744 mmHg 53%
    17:00 +28°C° 0 mm 5 m/s 744 mmHg 62%
    18:00 +26°C° 0 mm 4 m/s 744 mmHg 71%
    19:00 +25°C° 0 mm 4 m/s 744 mmHg 74%
    20:00 +22°C° 0 mm 4 m/s 744 mmHg 78%
    21:00 +21°C° 0 mm 4 m/s 745 mmHg 81%
    22:00 +22°C° 0 mm 3 m/s 744 mmHg 75%
    23:00 +22°C° 0 mm 3 m/s 744 mmHg 69%

    5 Mai, Vineri

    Timp Temperatura Precipitaţii Vânt Presiune Umiditate
    00:00 +24°C° 0 mm 3 m/s 744 mmHg 62%
    01:00 +24°C° 0 mm 3 m/s 744 mmHg 58%
    02:00 +25°C° 0 mm 4 m/s 744 mmHg 53%
    03:00 +25°C° 0 mm 4 m/s 743 mmHg 49%
    04:00 +25°C° 0 mm 4 m/s 743 mmHg 49%
    05:00 +25°C° 0 mm 5 m/s 743 mmHg 50%
    06:00 +23°C° 0 mm 5 m/s 744 mmHg 50%
    07:00 +27°C° 0 mm 4 m/s 744 mmHg 43%
    08:00 +30°C° 0 mm 4 m/s 744 mmHg 36%
    09:00 +34°C° 0 mm 4 m/s 744 mmHg 28%
    10:00 +36°C° 0 mm 4 m/s 744 mmHg 26%
    11:00 +37°C° 0 mm 3 m/s 744 mmHg 23%
    12:00 +38°C° 0 mm 3 m/s 743 mmHg 20%
    13:00 +37°C° 0 mm 3 m/s 743 mmHg 26%
    14:00 +35°C° 0 mm 4 m/s 743 mmHg 31%
    15:00 +34°C° 0 mm 4 m/s 742 mmHg 37%
    16:00 +31°C° 0 mm 3 m/s 742 mmHg 44%
    17:00 +29°C° 0 mm 3 m/s 742 mmHg 51%
    18:00 +28°C° 0 mm 2 m/s 742 mmHg 58%
    19:00 +26°C° 0 mm 3 m/s 743 mmHg 56%
    20:00 +25°C° 0 mm 3 m/s 743 mmHg 54%
    21:00 +23°C° 0 mm 4 m/s 744 mmHg 52%
    22:00 +22°C° 0 mm 4 m/s 744 mmHg 56%
    23:00 +21°C° 0 mm 5 m/s 744 mmHg 59%
    Arată mai mult